sat.trackr.live / text

‹ back to catalog

ONEWEB-0209

NORAD 48215 · 2021-031F

PAYLOAD ACTIVE UNKNOWN

§ Identity

Operator
Country
UK
Launch date
2021-04-25
Launch site
VOSTO
Launch vehicle
Mass (kg)
RCS (m²)

Purposes: comms

External: N2YO · Heavens-Above · Gunter

§ Orbital elements

Epoch: 2026-09-09T23:04:11.026272Z

Period
109.55 min
Inclination
87.8900°
Eccentricity
0.0001676
Mean motion
13.14501296 rev/d
Perigee alt
1,204.5 km
Apogee alt
1,207.1 km
Semi-major
7,583.9 km
B*
5.0208e-4
RAAN
272.8076°
Arg perigee
92.0475°
Mean anomaly
268.0847°
Rev number
25,951

§ Raw data

ONEWEB-02091 48215U 21031F   26252.96123873  .00000199  00000+0  50208-3 0  99992 48215  87.8900 272.8076 0001676  92.0475 268.0847 13.14501296259512

JSON: /api/v1/satellites/48215 · /tle

For live sub-satellite position, see the globe view (requires WebGL).

§ Visibility from observer

Set your observer location to see the next 7 days of passes ≥ 10°. The values pass through the URL so the page stays shareable.

No JS? Fill the form by hand. The geolocation button needs JavaScript.